Regional Weather Roundup
Issued by NWS

Home | Current Version | Previous Version | Graphics & Text | Print | Product List | Glossary On
Versions: 1 2 3 4 5 6 7 8 9 10 11 12 13 14 15 16 17 18 19 20 21 22 23 24 25 26 27 28 29 30 31 32 33 34 35 36 37 38 39 40 41 42 43 44 45 46 47 48 49 50
000
ASUS43 KLOT 191506
RWRIL

ILLINOIS REGIONAL WEATHER ROUNDUP
NATIONAL WEATHER SERVICE CHICAGO/ROMEOVILLE IL
1000 AM CDT SAT APR 19 2014

NOTE: "FAIR" INDICATES FEW OR NO CLOUDS BELOW 12,000 FEET WITH NO
SIGNIFICANT WEATHER AND/OR OBSTRUCTIONS TO VISIBILITY.

* THESE STATIONS ARE NOT UNDER NWS QUALITY CONTROL. THEY ALSO MAY NOT
  REPORT WEATHER SUCH AS PRECIPITATION OR FOG.

ILZ001-002-007-009-015-016-024-191600-
NORTHWEST ILLINOIS

CITY           SKY/WX    TMP DP  RH WIND       PRES   REMARKS
MOLINE         SUNNY     54  26  34 E12       30.31F
STERLING*      MOSUNNY   54  34  47 SE13      30.33F
SAVANNA*       SUNNY     53  30  42 SE12      30.32F
$$

ILZ003-004-008-010-011-017-018-191600-
NORTH CENTRAL ILLINOIS

CITY           SKY/WX    TMP DP  RH WIND       PRES   REMARKS
ROCKFORD       PTSUNNY   50  32  50 E10       30.37F
FREEPORT*      SUNNY     49  34  56 SE13      30.35S
ROCHELLE*      SUNNY     53  33  46 SE13      30.34F
DE KALB*       SUNNY     50  32  50 SE13      30.36S
$$

ILZ005-006-012>014-019>023-191600-
NORTHEAST ILLINOIS

CITY           SKY/WX    TMP DP  RH WIND       PRES   REMARKS
CHICAGO-OHARE  MOSUNNY   47  33  58 E9        30.38S
CHICAGO-MIDWAY MOSUNNY   48  37  65 E7        30.38S
AURORA         SUNNY     52  34  50 E12       30.36S
LANSING*       SUNNY     51  38  61 E6        30.38S
WAUKEGAN       SUNNY     40  32  73 E12       30.39F
DUPAGE AIRPORT SUNNY     50  34  54 E12       30.36F
KANKAKEE*      SUNNY     53  39  60 E10       30.36F
WHEELING       SUNNY     45  34  65 E7        30.40S
MORRIS*        SUNNY     53  33  46 E9        30.35S
NORTHERLY ISL    N/A     43  35  73 NE9         N/A
$$

LMZ740>746-191600-
SOUTHERN LAKE MICHIGAN

STATION/POSITION SKY/WX   TEMP    WIND        PRES    VSBY  WAVE
                          AIR SEA DIR/SP/G                  HT/PER
                          (F)     (DEG/KT/KT) (MB)    (MI)  (FT/S)
WAUKEGAN HARBOR            36      90/  7/  8 1030.8S
HARRISON CRIB              38      70/ 10/ 12   N/A
BURNHAM HARBOR             43      60/  7/  9   N/A
CALUMET HARBOR             40      50/  7/  9 1029.6R
MICHIGAN CITY              49     120/  9/ 13   N/A
$$

ILZ025>027-034>036-040-047-049-050-058-095>099-191600-
WEST-CENTRAL ILLINOIS

CITY           SKY/WX    TMP DP  RH WIND       PRES   REMARKS
QUINCY         SUNNY     59  37  44 S12       30.27F
GALESBURG*     SUNNY     55  28  36 E10G16    30.31S
MACOMB*        SUNNY     55  27  33 SE13      30.32F
JACKSONVILLE*  SUNNY     59  37  43 SE9       30.31S
PITTSFIELD*    SUNNY     58  37  44 SE9       30.30S
$$

ILZ028>032-037-038-041>044-048-051>054-059>061-191600-
CENTRAL ILLINOIS

CITY           SKY/WX    TMP DP  RH WIND       PRES   REMARKS
PONTIAC        SUNNY     54  37  54 SE12      30.34S
BLOOMINGTON    SUNNY     56  29  35 SE12      30.33F
DECATUR        SUNNY     58  36  43 E12       30.32F
PEORIA         SUNNY     57  28  33 SE8       30.32F
LACON*         MOSUNNY   54  34  46 SE8       30.33S
LINCOLN*       SUNNY     59  31  34 SE8       30.31F
SPRINGFIELD    SUNNY     59  34  39 SE9       30.31F
TAYLORVILLE    SUNNY     57  37  47 SE9       30.30S
$$

ILZ033-039-045-046-055>057-062-063-191600-
EAST-CENTRAL ILLINOIS

CITY           SKY/WX    TMP DP  RH WIND       PRES   REMARKS
CHAMPAIGN      SUNNY     58  37  45 E12       30.32S
RANTOUL*       SUNNY     57  37  47 E9        30.34S
MATTOON        SUNNY     60  37  42 SE10      30.31S
PARIS*         SUNNY     58  41  53 E7        30.33S
$$

ILZ079-100>102-191600-
SOUTHWEST ILLINOIS

CITY           SKY/WX    TMP DP  RH WIND       PRES   REMARKS
ALTON          SUNNY     59  41  51 E7        30.30S
BELLEVILLE     SUNNY     60  46  59 VRB3      30.29R
CAHOKIA*       SUNNY     61  43  51 S3        30.29R
SPARTA*        SUNNY     61  45  55 SE6       30.29S
$$

ILZ064>066-069>071-074>076-080>082-084>086-088>090-092>094-191600-
SOUTH-CENTRAL ILLINOIS

CITY           SKY/WX    TMP DP  RH WIND       PRES   REMARKS
CARBONDALE     SUNNY     63  45  51 E6        30.28R
CAIRO*         SUNNY     67  46  45 NE6       30.26R
MARION         SUNNY     64  45  48 E8        30.29R
MT. VERNON     SUNNY    N/A N/A N/A E6        30.30S
CENTRALIA*       N/A     63  41  44 CALM      30.29S
SALEM*         SUNNY     61  45  55 SE7       30.30S
METROPOLIS*    SUNNY     66  40  39 E3        30.26R
$$

ILZ067-068-072-073-078-083-087-091-191600-
SOUTHEAST ILLINOIS

CITY           SKY/WX    TMP DP  RH WIND       PRES   REMARKS
FAIRFIELD*     SUNNY     63  46  55 E5        30.29S
HARRISBURG*    SUNNY     63  44  50 E6        30.29S
ROBINSON*      SUNNY     62  46  56 NE6       30.32S
CARMI*         SUNNY     64  46  52 E6        30.29R
$$

ABBREVIATIONS USED IN REMARKS
   TC - TEMPERATURE IN CELSIUS
  WCI - WIND CHILL INDEX
   HX - HEAT INDEX
  VSB - VISIBILITY
$$




USA.gov is the U.S. government's official web portal to all federal, state and local government web resources and services.